Dewpoint
56 55 55 55 55 55 55 55 54 54 53 53 53 53 54 54 55 55 55 55 55 54 55 55 55 56 53 36 24 54 61 61 48 55 47 39 45 48 47 50 55 55 52 49 53 56 59
56 55 55 55 55 54 54 54 54 54 54 54 54 54 54 54 54 54 55 54 54 54 54 55 55 56 46 25 33 49 44 39 40 48 43 38 42 45 43 51 54 53 53 46 47 52 59
55 55 55 55 55 54 55 54 54 54 54 54 54 54 54 54 54 54 54 54 54 55 55 55 55 51 39 23 39 39 36 34 41 42 39 35 35 39 44 48 53 51 47 44 46 51 54
56 54 55 55 55 55 55 55 55 55 54 54 54 54 54 55 55 54 54 53 54 57 57 56 56 46 37 26 40 37 35 36 42 39 33 33 33 34 40 46 48 48 46 41 45 48 53
56 55 54 55 55 55 55 55 54 54 54 54 54 55 55 54 54 54 52 52 55 56 57 56 51 45 29 50 42 38 42 37 37 34 34 34 39 35 41 42 42 45 40 39 45 50 52
56 55 54 55 54 55 55 55 54 54 55 55 55 55 55 55 54 53 52 52 54 57 54 50 43 35 36 30 37 39 41 39 32 33 34 37 36 32 36 39 35 39 38 37 44 50 52
56 55 54 54 54 55 55 54 54 54 55 55 55 55 55 54 53 51 50 49 47 47 42 33 27 26 27 26 37 36 37 36 31 30 28 29 30 27 31 33 34 34 35 44 45 47 51
56 55 55 54 55 55 55 55 55 55 55 55 55 55 54 52 53 52 49 34 30 30 26 29 25 21 30 36 34 34 34 33 30 26 25 23 26 28 28 31 34 37 36 32 41 45 51
57 56 55 55 55 55 55 55 55 55 55 55 55 55 53 53 52 49 36 30 31 31 25 21 25 19 26 33 30 32 34 30 30 26 24 22 21 25 24 27 36 37 35 33 33 41 40
57 57 55 55 55 55 55 55 55 55 55 55 54 54 53 52 45 34 30 30 31 31 22 19 19 20 21 27 26 32 35 31 28 27 24 22 21 22 21 27 35 34 35 32 32 33 34
58 57 55 55 55 55 55 55 55 55 55 55 55 54 52 51 42 30 31 30 30 30 16 13 15 18 21 23 22 30 33 32 28 22 25 22 20 22 27 30 34 28 33 36 32 30 34
58 57 55 55 55 55 55 55 55 55 55 54 53 52 52 48 42 30 29 33 31 19 18 13 14 15 19 21 20 28 30 32 29 22 24 23 20 30 30 31 30 29 32 35 33 28 26
59 57 55 55 55 55 54 55 55 55 54 53 52 51 50 45 34 35 33 32 24 22 29 14 13 15 19 19 19 27 27 29 28 25 23 24 25 32 30 30 32 31 32 30 28 25 22
59 57 55 55 55 55 55 55 55 55 54 53 51 50 48 41 39 37 36 30 29 27 22 21 16 16 16 14 17 27 29 27 27 25 19 22 27 31 35 32 32 31 30 25 26 21 18
59 57 55 55 55 55 55 55 55 54 54 52 50 45 42 37 37 38 32 34 31 25 23 20 16 16 15 16 20 25 27 24 25 27 22 23 26 28 32 34 30 31 29 22 19 20 15
59 57 55 55 55 55 55 55 54 54 53 52 45 36 36 34 36 36 32 34 27 26 24 22 17 19 17 20 23 23 26 30 25 26 27 26 26 25 22 23 26 27 30 23 21 25 21
59 57 55 55 55 55 55 55 54 54 52 51 43 30 35 33 34 33 37 28 26 27 27 23 23 23 23 18 21 29 25 25 26 25 28 28 27 24 23 24 24 26 27 27 21 22 21
58 57 54 55 55 55 55 55 54 53 51 46 34 26 31 32 29 27 28 27 32 27 28 25 26 26 29 27 32 34 25 27 28 27 27 25 22 23 21 23 22 23 26 27 23 27 22
58 56 54 55 55 55 55 55 54 52 52 44 32 25 29 29 29 25 30 27 27 27 28 27 25 25 26 27 25 25 25 26 28 26 28 26 21 21 21 20 23 22 24 25 23 23 28
58 56 54 54 55 55 55 54 53 52 52 46 30 24 26 31 29 28 30 29 27 26 28 29 28 27 26 25 28 27 24 25 27 25 43 37 22 23 19 21 22 24 22 23 23 22 25
58 55 52 54 55 55 55 54 53 52 52 48 29 23 30 25 25 28 30 27 25 24 26 29 29 27 27 23 26 26 26 26 26 38 30 26 24 25 21 19 19 21 21 20 23 24 26
57 54 52 54 55 55 55 55 54 52 51 37 32 30 25 25 30 23 27 25 22 25 26 25 29 27 28 29 30 27 27 28 30 29 30 26 26 26 22 17 18 17 18 17 20 22 25
57 53 52 53 54 55 55 55 54 53 50 37 38 33 30 31 24 22 24 25 24 26 26 26 29 31 32 31 32 32 31 29 32 32 30 28 28 26 19 19 14 14 16 17 18 19 25
57 52 51 53 54 55 55 55 55 53 52 44 43 38 31 24 26 26 25 26 27 30 28 26 29 30 32 33 31 28 26 29 29 29 27 32 32 27 19 25 16 23 23 16 18 21 26
56 52 51 53 54 54 55 56 55 54 53 46 45 41 35 26 28 29 27 27 29 31 29 29 30 34 33 30 27 27 25 26 25 26 25 27 32 24 20 20 20 22 24 19 20 27 28
56 52 50 52 53 54 54 55 55 54 53 49 46 50 39 34 27 29 30 32 28 28 29 30 33 34 32 28 28 29 22 23 27 25 24 21 32 27 23 21 18 25 27 30 22 26 33
55 51 50 52 53 53 54 54 54 55 54 50 45 52 45 36 32 33 32 33 32 30 29 31 31 31 33 29 37 37 38 37 34 26 28 27 29 25 22 24 23 33 31 29 23 33 36
52 50 50 51 52 53 54 54 54 54 54 49 45 48 46 36 37 35 33 35 32 32 31 34 28 28 26 35 37 39 41 42 39 34 31 30 32 31 28 27 26 34 31 28 41 41 39
50 49 50 51 52 53 53 54 54 55 54 53 43 47 48 45 41 40 38 40 39 37 34 34 34 29 28 37 39 38 44 41 39 39 34 33 32 36 30 36 42 38 39 42 41 40 38
Lifted_Index
16 16 16 15 15 15 14 14 14 14 14 15 15 15 15 15 15 15 15 16 16 16 16 15 14 13 12 11 10 8 8 9 8 6 5 5 3 2 0 -1 -2 -2 -2 -1 -1 -1 -2
16 16 16 15 15 14 14 14 14 14 14 14 14 15 15 15 15 15 15 16 16 16 16 15 14 13 12 11 9 9 9 10 8 6 5 5 4 2 1 -0 -2 -2 -1 -1 -1 -1 -2
16 16 16 15 15 14 13 13 14 14 14 14 14 14 14 14 15 15 15 16 15 15 15 15 14 12 11 10 9 9 10 9 8 7 6 6 6 4 2 -0 -1 -2 -1 -1 -1 -1 -2
16 16 16 15 14 13 13 13 13 13 13 13 13 13 14 14 14 15 15 15 14 13 13 14 13 11 10 10 9 9 9 8 7 7 7 7 6 5 3 1 -1 -2 -2 -2 -2 -2 -2
16 16 16 15 14 13 13 13 13 13 13 13 13 13 13 13 14 14 15 14 12 12 12 12 11 10 10 9 8 8 7 7 7 7 7 7 6 5 3 1 -0 -1 -2 -3 -3 -3 -3
15 15 15 14 13 12 12 13 13 12 12 12 12 12 12 13 14 14 14 12 10 9 10 10 10 9 9 8 8 7 7 7 7 7 7 7 6 5 3 2 0 -1 -2 -3 -3 -3 -3
15 15 15 14 13 12 12 13 12 12 11 11 11 11 12 12 13 13 11 9 8 7 7 8 8 9 8 8 7 7 7 7 7 7 7 7 6 5 4 2 0 -1 -2 -2 -3 -3 -3
15 15 15 14 13 12 12 12 11 11 10 10 11 11 11 12 11 10 9 7 7 7 7 7 8 8 7 6 6 6 6 6 7 7 7 6 6 5 4 3 1 -1 -1 -1 -1 -2 -2
14 14 14 14 13 12 12 11 10 10 9 10 10 10 11 10 9 8 6 6 6 6 6 6 6 7 7 6 5 5 5 5 5 6 6 6 5 5 5 3 1 -1 -1 -1 -1 -1 -1
13 13 14 14 13 12 11 10 9 9 9 9 9 9 9 8 7 5 5 5 5 5 4 4 5 6 6 5 5 5 4 4 4 5 5 5 5 5 5 3 1 -0 -1 -1 -1 -1 -1
11 12 13 13 12 11 10 9 9 8 8 8 8 8 8 7 5 4 4 4 4 3 2 2 4 4 4 4 3 3 3 3 3 4 4 4 4 4 4 3 2 0 -1 -1 -1 -0 -1
10 12 13 13 12 11 10 9 8 7 7 7 7 7 6 5 4 4 3 3 3 2 1 1 2 2 2 2 2 2 2 2 3 3 4 4 4 3 3 2 1 -0 -1 -2 -1 -0 -0
9 11 12 12 12 11 10 9 8 7 6 6 6 6 5 4 3 3 3 2 1 -0 -0 0 1 1 1 0 0 1 1 1 2 2 3 3 2 2 2 2 1 0 -1 -1 -1 -1 -1
8 10 12 12 11 10 9 9 8 7 6 6 5 5 4 3 2 2 2 1 -0 -1 -0 1 1 0 -0 -0 -0 -1 -0 0 0 1 1 1 0 0 1 1 1 1 -0 -1 -1 -1 -1
7 9 11 11 11 10 9 8 7 7 6 5 4 3 2 2 2 1 1 0 -0 0 1 1 1 0 -0 -0 -0 -1 -1 -0 -0 -0 0 -0 -0 0 1 1 1 1 1 -0 -1 -1 -1
6 8 10 11 10 9 8 7 7 7 6 5 3 2 1 1 1 1 0 -0 0 1 1 1 1 0 0 -0 -0 -1 -0 0 0 0 0 0 0 1 2 3 2 2 1 0 -0 -1 -1
6 8 10 11 10 9 8 7 6 6 6 4 2 1 1 1 1 -0 -0 -0 0 1 1 1 1 0 0 0 -0 -0 0 1 1 1 1 0 0 2 3 3 2 2 1 0 -0 -1 -1
6 7 10 10 9 8 7 6 6 6 6 4 2 1 1 1 0 -1 -1 -0 0 1 1 1 1 1 0 0 0 0 0 1 1 1 1 1 0 1 2 3 3 2 1 0 -0 -0 -1
6 7 9 10 9 8 7 6 6 6 5 4 2 1 2 1 0 -0 -0 0 0 1 0 0 1 1 1 0 -0 -0 1 1 1 1 1 1 1 0 1 2 3 2 2 1 0 -0 -0
5 6 8 9 9 8 7 6 6 6 5 4 2 2 2 1 1 0 0 1 1 1 1 0 0 1 0 0 -0 -0 0 1 1 2 2 1 0 0 1 2 2 2 3 2 1 0 -0
5 5 7 9 9 8 6 6 6 5 5 4 3 3 2 2 1 1 1 1 1 1 1 0 -0 -0 -0 -0 -0 -1 -0 0 1 1 1 1 -0 0 1 2 2 2 3 3 2 1 0
4 5 7 9 9 8 6 6 5 5 4 3 3 3 3 2 2 2 2 2 2 2 2 1 0 -0 -0 -0 -0 -0 -0 -0 0 1 1 0 -0 0 1 2 3 3 4 4 3 2 1
3 4 6 8 9 8 6 6 6 5 4 3 3 3 3 3 3 2 2 2 2 3 3 3 2 1 0 0 0 0 0 0 0 0 1 1 0 0 1 2 3 4 4 5 4 3 2
3 3 5 8 8 7 6 6 6 5 4 3 2 2 2 3 3 3 3 3 3 3 3 3 3 2 2 2 1 1 1 1 1 1 1 1 1 1 1 1 2 3 4 4 4 3 2
3 3 4 7 8 7 6 6 6 6 4 3 2 2 2 2 3 3 3 3 3 3 3 3 3 3 3 3 2 1 1 1 2 2 2 2 1 1 1 1 1 3 4 4 4 3 3
3 3 5 8 8 7 6 6 7 7 5 3 2 2 1 2 3 3 3 3 3 3 3 3 4 4 3 3 2 1 1 1 2 2 3 3 2 2 1 1 1 2 4 4 3 3 3
3 5 7 8 8 6 6 6 7 7 6 4 3 2 1 2 2 3 3 3 3 3 3 3 3 4 3 2 1 1 1 1 1 2 2 3 2 2 2 1 1 3 4 4 3 3 3
5 7 9 9 7 6 6 6 7 7 7 5 3 2 2 1 2 2 3 3 3 2 2 3 3 3 3 2 2 1 1 1 2 2 2 2 2 2 2 1 2 3 3 3 3 3 3
7 9 10 9 7 6 5 6 6 7 7 5 4 3 2 1 1 2 3 3 2 2 2 2 3 3 3 2 2 2 2 2 2 2 2 2 2 1 1 1 2 3 3 3 3 3 4